Regional Weather Roundup
Issued by NWS Austin/San Antonio, TX

Home | Current Version | Previous Version | Text Only | Print | Product List | Glossary On
Versions: 1 2 3 4 5 6 7 8 9 10 11 12 13 14 15 16 17 18 19 20 21 22 23 24 25 26 27 28 29 30 31 32 33 34 35 36 37 38 39 40 41 42 43 44 45 46 47 48 49 50
000
ASUS44 KEWX 210802
RWREWX
SOUTH TEXAS REGIONAL WEATHER ROUNDUP
NATIONAL WEATHER SERVICE AUSTIN/SAN ANTONIO TX
300 AM CDT WED AUG 21 2019

NOTE: "FAIR" INDICATED FEW OR NO CLOUDS BELOW 12,000 FEET WITH NO
SIGNIFICANT WEATHER AND/OR OBSTRUCTIONS TO VISIBILITY.

* - THESE STATIONS ARE NOT NWS OR FAA STATIONS...AND ARE NOT SUBJECT
    TO NWS AND FAA QUALITY CONTROL.

TXZ171-172-183>190-210900-
TEXAS HILL COUNTRY AND EDWARDS PLATEAU

CITY           SKY/WX    TMP DP  RH WIND       PRES   REMARKS
JUNCTION       CLEAR     79  64  60 SE3       30.05S
*LLANO         CLEAR     79  66  65 CALM      30.06S
BURNET         CLEAR     81  67  62 SE6       30.06S
*HORSESHOE BAY CLEAR     81  66  61 CALM      30.03F
*KERRVILLE     CLEAR     76  69  76 S8        30.06F
*FREDERICKSBRG CLEAR     77  64  63 S5        30.06S
*ROCKSPRINGS   CLEAR     77  66  69 SE13G24   30.12S
*BOERNE        CLEAR     75  68  78 S5        30.06S
*CASTROVILLE   CLEAR     78  68  69 SE3       30.03F
HONDO          CLEAR     78  68  71 SE6       30.02S
*UVALDE        CLEAR     78  67  70 E5        30.03R
DEL RIO        CLEAR     85  69  58 E13       29.97R
LAUGHLIN AFB   CLEAR     83  70  65 SE14      29.98S
SPOFFORD       CLEAR     82  70  66 SE10      29.93S
*EAGLE PASS    CLEAR     84  68  58 SE10G20   29.98S
CARRIZO SPRGS  CLEAR     81  68  65 SE9       29.97S
$$

TXZ173-191>194-202-209-217>225-228-210900-
CENTRAL AND SOUTH CENTRAL TEXAS

CITY           SKY/WX    TMP DP  RH WIND       PRES   REMARKS
GEORGETOWN     PTCLDY    81  71  71 S5        30.04S
AUSTIN/BERGSTM PTCLDY    79  72  79 S3        30.01F
AUSTIN/MABRY   CLEAR     81  71  71 VRB3      30.03S
*AUSTIN/EXEC   MOCLDY    77  72  83 S3        30.02F
*LAGO VISTA    CLEAR     78  70  77 S5        30.05F
SAN MARCOS     CLOUDY    79  74  84 S6        30.03F
NEW BRAUNFELS  MOCLDY    80  73  79 S5        30.01F
RANDOLPH AFB   CLEAR     78  73  85 S5        30.02S
SEGUIN         MOCLDY    78  74  90 CALM      30.05S
KELLY FIELD    CLEAR     78  71  81 SE6       30.01S
SAN ANTONIO    CLEAR     79  71  76 S9        30.02F
STINSON FIELD  MOCLDY    80  72  76 CALM      30.00S
PLEASANTON     CLEAR     76  71  85 E3        30.01S
*LA GRANGE     CLEAR     78  77  96 CALM      29.99F
*GIDDINGS      CLEAR     82  76  84 CALM      30.02F
*GONZALES      CLEAR     79  76  91 CALM      30.01S
$$

TXZ163>164-176>182-195>201-210>213-226-227-235-210900-
SOUTHEAST TEXAS

CITY           SKY/WX    TMP DP  RH WIND       PRES   REMARKS
COLLEGE STN    CLEAR     79  75  87 SE5       30.02S
*BRYAN         CLEAR     79  79 100 SE3       30.03F
*CALDWELL      CLEAR     77  74  88 S3        30.02S
*CROCKETT      CLEAR     77  75  94 SE5       30.05F
*BRENHAM       CLEAR     77  77 100 S3        30.02F
HUNTSVILLE     CLEAR     77  74  90 S3        30.02F
CONROE         CLEAR     75  73  93 CALM      30.02F
HOUSTON BUSH   PTCLDY    78  75  90 CALM      30.01F
HOUSTON HOBBY  FAIR      80  75  84 SE6       30.01F
*HOUSTON SW AP FAIR      75  75  99 CALM      30.02F
PEARLAND       FAIR      80  76  87 CALM      30.02F
HOUSTON HOOKS  FAIR      76  73  91 CALM      30.01F
ELLINGTON FLD  MOCLDY    81  75  83 CALM      30.00F
SUGAR LAND     FAIR      77  76  96 SE5       30.01F
*HOUSTON EXEC  FAIR      79  77  94 SE5       30.02F
*CLEVELAND MUN FAIR      75  75 100 CALM      30.03F FOG
*WHARTON       CLEAR     75  73  93 CALM      30.01F
*COLUMBUS      FAIR      75  68  77 CALM      30.02F
*EAGLE LAKE    CLEAR     78  76  95 E3        30.01F
$$

TXZ214>216-236>238-210900-
THE UPPER TEXAS COAST

CITY           SKY/WX    TMP DP  RH WIND       PRES   REMARKS
*ORANGE        FAIR      77  77 100 CALM      30.03F FOG
PORT ARTHUR    FAIR      78  75  90 CALM      30.01F
GALVESTON      FAIR      85  77  77 S10       30.02F HX  95
ANGLETON       FAIR      76  74  93 CALM      30.01F
*BAY CITY      PTCLDY    78  77  97 E3        30.01S
PALACIOS       NOT AVBL
$$

TXZ229>234-239>247-210900-
TEXAS COASTAL BEND AND RIO GRANDE PLAINS

CITY           SKY/WX    TMP DP  RH WIND       PRES   REMARKS
VICTORIA       CLEAR     77  73  87 S6        30.00F
*BEEVILLE      NOT AVBL
ROCKPORT       CLEAR     83  75  77 S9        29.98S HX  90
*PORT ARANSAS  CLEAR     83  78  83 SE8       29.99F HX  94
*PORT LAVACA   CLEAR     81  77  89 S5        30.00S
*INGLESIDE     CLEAR     83  77  83 S6        29.98S HX  91
CORPUS CHRISTI PTCLDY    79  75  87 SE5       29.98S
CORPUS NAS     CLEAR     83  80  91 SE10      29.97F HX  95
*ROBSTOWN      CLEAR     80  74  84 SE5       29.98F
ALICE          CLEAR     76  73  91 CALM      29.98S
KINGSVILLE NAS CLEAR     79  76  90 S3        29.98S
COTULLA        CLEAR     81  72  74 SE9       29.99R
LAREDO         CLEAR     82  73  74 SE12      29.98S
$$

TXZ248>255-210900-
DEEP SOUTH TEXAS

CITY           SKY/WX    TMP DP  RH WIND       PRES   REMARKS
BROWNSVILLE    FAIR      82  78  88 SE5       29.96S HX  91
PORT ISABEL    FAIR      82  76  81 SE8       29.96S
HARLINGEN      CLEAR     79  76  90 SE6       29.96S
*HEBBRONVILLE  CLEAR     78  73  84 CALM      30.00F
MCALLEN        PTCLDY    80  74  81 SE6       29.98R
*WESLACO       MOCLDY    80  74  82 SE3       29.96
FALFURRIAS     CLEAR     80  74  84 CALM      29.97F
EDINBURG       FAIR      80  74  82 CALM      29.98S
*ZAPATA        FAIR      82  71  68 SE6       29.99S
$$

TXZ213>215-236>238-242>244-246-247-251-254-255-210900-
CMAN STATIONS

STATION/POSITION TIME  TEMP    WIND        PRES    WAVE
                       AIR SEA DIR/SP/G            HT/PER
                 (UTC) (F)     (DEG/KT/KT) (MB)    (FT/S)
SABINE PASS      0730   82 89  170/  5/  7 1018.3
NORTH JETTY/GLS  0724   86 87  170/ 11/ 12 1015.5
EAGLE POINT      0730   85 87  170/  9/ 10 1015.5
MORGANS POINT    0730   84 88  170/  5/  9 1016.3
PORT O`CONNOR    0730   85 88  150/ 13/ 15 1015.1
PORT ARANSAS     0700   84 86  150/ 11/ 13 1015.3
MALAQUITE BEACH  0724   83 85  130/ 10/ 11 1014.7
BAFFIN BAY       0724   83 88  120/  7/  9 1015.0
PORT ISABEL      0724   83 85  120/  9/ 11 1014.9
$$



USA.gov is the U.S. government's official web portal to all federal, state and local government web resources and services.